STARLINK-30040 (55697 NORAD) Tracking and Keplerian Element Data

This shows tracking and keplerian element data for the satellite.

Feedback or suggestion? Click here.




ElementValue
Catalog55697
NameSTARLINK-30040
Epoch Orbit130
Epoch Day62.91667824
Epoch Year2023
RAAN259.651
Inclination43.01
Eccentricity0.0001607
Argument of Perigee278.1473
Mean Anonmoly167.5808
Mean Motion15.63091257
Decay Rate-0.00786488
L11 55697U 23026C 23062.91667824 -.00786488 00000+0 -92409-2 0 9999
L22 55697 43.0100 259.6510 0001607 278.1473 167.5808 15.63091257 1304



Live tracking and technical data element details for STARLINK-30040 (NORAD 55697). STARLINK-30040 can be tracked NOW for your location showing map with azimuth and elevation plus other details from your city location.







IsCatalogInMostPopularTable: catalog: 55697, numindb: 1
Update: records affected: 1



GetName: 55697 STARLINK-30040

Hit Count: updated at: Mon, 20 Mar 2023 13:27:08 GMT